Flag for Germany Weather past 2 weeks in Schwerin, Mecklenburg-Western Pomerania, Germany

Now
75 °F

Overcast.


Feels Like: 78 °F
Forecast: 62 / 79 °F
Wind: 5 mph from Northeast

Location: Schwerin

Current Time: Jul 25, 2014 at 6:46:13 PM

Latest Report: Jul 25, 2014 at 6:00 PM


Visibility: 15 mi

Pressure: 29.96 "Hg

Humidity: 50%

Dew point: 55 °F

Location of SchwerinLocation

Historic Weather in Schwerin — Graph

°F

Schwerin temperature yesterday

Maximum temperature yesterday: 80 °F (at 3:00 PM)
Minimum temperature yesterday: 62 °F (at 4:00 AM)
Average temperature yesterday: 70 °F

Past Weeks' High & Low Weather Summary

 TemperatureHumidityPressure
High87 °F (Jul 19, 5:00 PM)99% (Jul 15, 6:00 AM)30.20 "Hg (Jul 15, 6:00 AM)
Low57 °F (Jul 12, 3:00 AM)32% (Jul 19, 4:00 PM)29.72 "Hg (Jul 14, 9:00 AM)
Average71 °F66%30.01 "Hg
* Reported Jul 10 6:00 PM — Jul 25 6:00 PM, Schwerin, Weather by CustomWeather, © 2014

Note: Actual official high and low records may vary slightly from our data, if they occured in-between our weather recording intervals... More about our weather records

Advertising

Schwerin weather history for previous 24 hours

 ConditionsComfort  
Time TempWeatherWind HumidityBarometerVisibility
6:00 PM
Jul 25
75 °FOvercast.5 mph50%29.96 "Hg15 mi
5:00 PM78 °FOvercast.5 mph40%29.96 "Hg19 mi
4:00 PM80 °FOvercast.6 mph36%29.96 "Hg19 mi
3:00 PM82 °FOvercast.6 mph32%29.96 "Hg16 mi
2:00 PM82 °FPartly sunny.5 mph35%29.96 "Hg18 mi
1:00 PM81 °FPassing clouds.6 mph38%29.97 "Hg19 mi
12:00 PM76 °FOvercast.3 mph56%30.00 "Hg15 mi
11:00 AM74 °FOvercast.3 mph68%30.00 "Hg14 mi
10:00 AM70 °FOvercast.3 mph74%30.01 "Hg11 mi
9:00 AM69 °FOvercast.3 mph78%30.01 "Hg14 mi
8:00 AM67 °FPartly sunny.3 mph83%30.01 "Hg11 mi
7:00 AM65 °FOvercast.3 mph88%30.01 "Hg10 mi
6:00 AM65 °FOvercast.2 mph89%30.01 "Hg9 mi
4:00 AM65 °FOvercast.5 mph85%30.01 "Hg11 mi
3:00 AM64 °FOvercast.3 mph88%30.03 "Hg11 mi
2:00 AM64 °FLight rain. Overcast.1 mph92%30.05 "Hg7 mi
1:00 AM65 °FLight rain. Overcast.2 mph83%30.07 "Hg9 mi
12:00 AM67 °FLight rain. Overcast.1 mph76%30.07 "Hg19 mi
10:00 PM
Jul 24
68 °FOvercast.2 mph72%30.06 "Hg19 mi
9:00 PM71 °FOvercast.3 mph63%30.06 "Hg19 mi
8:00 PM75 °FOvercast.5 mph38%30.04 "Hg22 mi
7:00 PM76 °FOvercast.5 mph38%30.03 "Hg19 mi
6:00 PM77 °FOvercast.5 mph39%30.03 "Hg19 mi
Weather by CustomWeather, © 2014

See weather overviewHow to use our weather pages